Regional Weather Roundup
Issued by NWS Sioux Falls, SD

Home | Current Version | Previous Version | Graphics & Text | Print | Product List | Glossary Off
Versions: 1 2 3 4 5 6 7 8 9 10 11 12 13 14 15 16 17 18 19 20 21 22 23 24 25 26 27 28 29 30 31 32 33 34 35 36 37 38 39 40 41 42 43 44 45 46 47 48 49 50

000
ASUS43 KFSD 290302
RWRFSD

WEATHER ROUNDUP FOR SE SOUTH DAKOTA/SW MINNESOTA/NW IOWA
NATIONAL WEATHER SERVICE SIOUX FALLS SD
900 PM CST SUN DEC 28 2014

NOTE: "FAIR" INDICATES FEW OR NO CLOUDS BELOW 12,000 FEET WITH NO
SIGNIFICANT WEATHER AND OR OBSTRUCTIONS TO VISIBILITY.


SDZ038>040-050-052>070-290400-
SOUTHEAST SOUTH DAKOTA

CITY           SKY/WX    TMP DP  RH WIND       PRES   REMARKS
CHAMBERLAIN    NOT AVBL
HURON          LGT SNOW  15  11  83 NE7       30.30R FOG     WCI   5
MADISON        CLOUDY    14  14 100 NE14      30.24R WCI  -1
MITCHELL       LGT SNOW  20  18  92 NE8       30.28R FOG     WCI  10
SIOUX FALLS    CLOUDY    19  14  81 NE13      30.24R WCI   6
WINNER         LGT SNOW  18  14  84 E13       30.18R WCI   5
YANKTON        CLOUDY    19  18  93 E9        30.24R WCI   9
$$

MNZ071-072-080-081-089-090-097-098-290400-
SOUTHWEST MINNESOTA

CITY           SKY/WX    TMP DP  RH WIND       PRES   REMARKS
FAIRMONT       CLOUDY    16  12  86 N5        30.25R WCI   9
JACKSON        MOCLDY    19  18  93 NE3       30.25R
LUVERNE        CLOUDY    19  18  93 NE12      30.25R WCI   7
MARSHALL       CLOUDY    12   5  73 N12       30.30R WCI  -2
MONTEVIDEO     CLOUDY    12   7  79 N7        30.33R WCI   2
PIPESTONE      CLOUDY    12  10  92 NE14      30.24R WCI  -3
REDWOOD FALLS  CLOUDY    18  11  74 NE5       30.30R WCI  11
TRACY          CLOUDY    15  12  85 N10       30.28R WCI   3
WINDOM         CLOUDY    19  18  93 CALM      30.26R
WORTHINGTON    CLOUDY    18 -27  12 NE8       30.25R WCI   7
$$

IAZ001>003-012>014-020>022-031-032-NEZ013-014-SDZ071-290400-
NORTHWEST IOWA

CITY           SKY/WX    TMP DP  RH WIND       PRES   REMARKS
CHEROKEE       CLOUDY    19  18  94 NE6       30.23S WCI  11
DENISON        CLOUDY    21  19  93 NE9       30.18R WCI  11
ESTHERVILLE    CLOUDY    17  16  95 N10       30.24R FOG     WCI   5
SIOUX CITY     CLOUDY    22  16  78 NE9       30.22R WCI  12
SPENCER        CLOUDY    19  15  84 NE13      30.25R WCI   6
$$

ABBREVIATIONS USED IN REMARKS
   TC - TEMPERATURE IN CELSIUS
  WCI - WIND CHILL INDEX
   HX - HEAT INDEX
  VSB - VISIBILITY



USA.gov is the U.S. government's official web portal to all federal, state and local government web resources and services.